Weather History for Longville, MN

Change the Weather History Date:

Sunday, May 26, 2013

  Actual Average (KPWC) Record (KPWC)
Temperature  
Mean Temperature 58 °F -  
Max Temperature 71 °F 66 °F 82 °F (2014)
Min Temperature 44 °F 43 °F 30 °F (2004)
Degree Days  
Heating Degree Days 8    
Growing Degree Days 8 (Base 50)    
Moisture  
Dew Point 36 °F    
Average Humidity 50    
Maximum Humidity 81    
Minimum Humidity 22    
Precipitation  
Precipitation 0.00 in - - ()
Sea Level Pressure  
Sea Level Pressure 30.17 in    
Wind  
Wind Speed 5 mph (SE)    
Max Wind Speed 15 mph    
Max Gust Speed 24 mph    
Visibility 10 miles    
Events Rain    
Averages and records for this station are not official NWS values.
T = Trace of Precipitation, MM = Missing Value Source: NWS Daily Summary

Daily Weather History Graph

Daily Weather History Graph

Search for Another Location

Airport:

Trip Planner

Search our weather history database for the weather conditions in past years. The results will help you decide how hot, cold, wet, or windy it might be!

Date:

Astronomy

May. 26, 2013 Rise Set
Actual Time 5:29 AM CDT 8:58 PM CDT
Civil Twilight 4:52 AM CDT 9:36 PM CDT
Nautical Twilight 4:02 AM CDT 10:26 PM CDT
Astronomical Twilight 2:56 AM CDT 11:33 PM CDT
Moon 10:44 PM CDT (5/26) 7:00 AM CDT (5/26)
Length of Visible Light 16h 44m
Length of Day
15h 28m
Waning Gibbous, 96% of the Moon is Illuminated
May 26
Waning Gibbous
May 31
Last Quarter
Jun 8
New
Jun 16
First Quarter
Jun 23
Full

Hourly Weather History & Observations

Time (CDT) Temp. Windchill Dew Point Humidity Pressure Visibility Wind Dir Wind Speed Gust Speed Precip Events Conditions
12:16 AM 50.0 °F - 39.2 °F 66% 30.23 in 10.0 mi East 3.5 mph - N/A   Clear
12:36 AM 48.2 °F - 39.2 °F 71% 30.23 in 10.0 mi East 3.5 mph - N/A   Clear
12:56 AM 48.2 °F - 39.2 °F 71% 30.23 in 10.0 mi Calm Calm - N/A   Clear
1:16 AM 48.2 °F - 39.2 °F 71% 30.22 in 10.0 mi East 3.5 mph - N/A   Clear
1:36 AM 48.2 °F - 39.2 °F 71% 30.22 in 10.0 mi East 3.5 mph - N/A   Clear
1:56 AM 48.2 °F - 39.2 °F 71% 30.22 in 10.0 mi Calm Calm - N/A   Clear
2:16 AM 46.4 °F - 39.2 °F 76% 30.22 in 10.0 mi Calm Calm - N/A   Clear
2:36 AM 46.4 °F - 39.2 °F 76% 30.23 in 10.0 mi Calm Calm - N/A   Clear
2:56 AM 46.4 °F - 39.2 °F 76% 30.21 in 10.0 mi Calm Calm - N/A   Clear
3:16 AM 44.6 °F - 37.4 °F 76% 30.21 in 10.0 mi Calm Calm - N/A   Clear
3:36 AM 44.6 °F 43.1 °F 39.2 °F 81% 30.20 in 10.0 mi East 3.5 mph - N/A   Clear
3:56 AM 44.6 °F - 37.4 °F 76% 30.21 in 10.0 mi Calm Calm - N/A   Clear
4:16 AM 46.4 °F - 37.4 °F 71% 30.21 in 10.0 mi Calm Calm - N/A   Mostly Cloudy
4:36 AM 44.6 °F - 37.4 °F 76% 30.22 in 10.0 mi Calm Calm - N/A   Scattered Clouds
4:56 AM 44.6 °F - 37.4 °F 76% 30.24 in 10.0 mi Calm Calm - N/A   Clear
5:16 AM 44.6 °F - 37.4 °F 76% 30.24 in 10.0 mi Calm Calm - N/A   Mostly Cloudy
5:36 AM 44.6 °F - 37.4 °F 76% 30.24 in 10.0 mi Calm Calm - N/A   Overcast
5:56 AM 44.6 °F 43.1 °F 35.6 °F 71% 30.23 in 10.0 mi East 3.5 mph - N/A   Overcast
6:16 AM 46.4 °F 45.2 °F 35.6 °F 66% 30.23 in 10.0 mi East 3.5 mph - N/A   Mostly Cloudy
6:36 AM 46.4 °F 44.3 °F 35.6 °F 66% 30.22 in 10.0 mi ESE 4.6 mph - N/A   Overcast
6:56 AM 46.4 °F 44.3 °F 35.6 °F 66% 30.22 in 10.0 mi East 4.6 mph - N/A   Mostly Cloudy
7:16 AM 48.2 °F - 35.6 °F 62% 30.23 in 10.0 mi ESE 3.5 mph - N/A   Mostly Cloudy
7:36 AM 48.2 °F - 37.4 °F 66% 30.23 in 10.0 mi SE 3.5 mph - N/A   Scattered Clouds
7:56 AM 50.0 °F - 37.4 °F 62% 30.23 in 10.0 mi ESE 6.9 mph - N/A   Clear
8:16 AM 51.8 °F - 37.4 °F 58% 30.23 in 10.0 mi SE 5.8 mph - N/A   Clear
8:36 AM 51.8 °F - 37.4 °F 58% 30.22 in 10.0 mi SE 6.9 mph - N/A   Clear
8:56 AM 51.8 °F - 37.4 °F 58% 30.22 in 10.0 mi ESE 3.5 mph - N/A   Clear
9:16 AM 55.4 °F - 37.4 °F 51% 30.21 in 10.0 mi SE 8.1 mph - N/A   Clear
9:36 AM 57.2 °F - 35.6 °F 44% 30.20 in 10.0 mi SE 10.4 mph 18.4 mph N/A   Clear
9:56 AM 57.2 °F - 35.6 °F 44% 30.19 in 10.0 mi SE 6.9 mph - N/A   Clear
10:16 AM 59.0 °F - 35.6 °F 42% 30.19 in 10.0 mi ESE 8.1 mph 16.1 mph N/A   Clear
10:36 AM 60.8 °F - 33.8 °F 36% 30.20 in 10.0 mi SE 10.4 mph 18.4 mph N/A   Clear
10:56 AM 62.6 °F - 33.8 °F 34% 30.21 in 10.0 mi ESE 12.7 mph 20.7 mph N/A   Clear
11:16 AM 62.6 °F - 33.8 °F 34% 30.20 in 10.0 mi ESE 10.4 mph 24.2 mph N/A   Scattered Clouds
11:36 AM 62.6 °F - 30.2 °F 30% 30.20 in 10.0 mi ESE 9.2 mph 20.7 mph N/A   Scattered Clouds
11:56 AM 62.6 °F - 32.0 °F 32% 30.18 in 10.0 mi SE 11.5 mph 20.7 mph N/A   Clear
12:16 PM 64.4 °F - 33.8 °F 32% 30.18 in 10.0 mi SE 11.5 mph 20.7 mph N/A   Clear
12:36 PM 66.2 °F - 33.8 °F 30% 30.16 in 10.0 mi SE 10.4 mph - N/A   Clear
12:56 PM 66.2 °F - 30.2 °F 26% 30.15 in 10.0 mi ESE 10.4 mph 21.9 mph N/A   Clear
1:16 PM 66.2 °F - 33.8 °F 30% 30.14 in 10.0 mi SE 12.7 mph 20.7 mph N/A   Clear
1:36 PM 66.2 °F - 30.2 °F 26% 30.14 in 10.0 mi SE 10.4 mph 18.4 mph N/A   Clear
1:56 PM 66.2 °F - 28.4 °F 24% 30.14 in 10.0 mi ESE 9.2 mph 17.3 mph N/A   Clear
2:16 PM 69.8 °F - 30.2 °F 23% 30.14 in 10.0 mi SE 11.5 mph 17.3 mph N/A   Clear
2:36 PM 69.8 °F - 32.0 °F 25% 30.13 in 10.0 mi SSE 15.0 mph 20.7 mph N/A   Clear
2:56 PM 69.8 °F - 32.0 °F 25% 30.13 in 10.0 mi SE 6.9 mph - N/A   Clear
3:16 PM 71.6 °F - 30.2 °F 22% 30.12 in 10.0 mi ESE 6.9 mph - N/A   Clear
3:36 PM 69.8 °F - 30.2 °F 23% 30.12 in 10.0 mi SE 9.2 mph 18.4 mph N/A   Scattered Clouds
3:56 PM 71.6 °F - 33.8 °F 25% 30.11 in 10.0 mi SE 8.1 mph - N/A   Clear
4:16 PM 69.8 °F - 32.0 °F 25% 30.11 in 10.0 mi SE 11.5 mph 17.3 mph N/A   Clear
4:35 PM 69.8 °F - 30.2 °F 23% 30.10 in 10.0 mi ESE 5.8 mph - N/A   Clear
4:56 PM 71.6 °F - 32.0 °F 23% 30.10 in 10.0 mi East 4.6 mph 17.3 mph N/A   Clear
5:16 PM 71.6 °F - 32.0 °F 23% 30.10 in 10.0 mi SE 8.1 mph 17.3 mph N/A   Scattered Clouds
5:36 PM 69.8 °F - 33.8 °F 27% 30.10 in 10.0 mi SE 10.4 mph - N/A   Clear
5:55 PM 69.8 °F - 35.6 °F 28% 30.10 in 10.0 mi SSE 11.5 mph 17.3 mph N/A   Clear
6:16 PM 66.2 °F - 35.6 °F 32% 30.11 in 10.0 mi SSE 9.2 mph - N/A   Scattered Clouds
6:36 PM 64.4 °F - 35.6 °F 34% 30.11 in 10.0 mi South 12.7 mph 19.6 mph N/A   Mostly Cloudy
6:56 PM 64.4 °F - 37.4 °F 37% 30.11 in 10.0 mi South 5.8 mph - N/A   Mostly Cloudy
7:16 PM 64.4 °F - 37.4 °F 37% 30.10 in 10.0 mi SSE 5.8 mph - N/A   Mostly Cloudy
7:36 PM 62.6 °F - 37.4 °F 39% 30.11 in 10.0 mi SSE 6.9 mph - N/A   Scattered Clouds
7:56 PM 62.6 °F - 37.4 °F 39% 30.11 in 10.0 mi SSE 6.9 mph - N/A   Scattered Clouds
8:16 PM 62.6 °F - 37.4 °F 39% 30.11 in 10.0 mi SSE 5.8 mph - N/A   Mostly Cloudy
8:36 PM 60.8 °F - 39.2 °F 45% 30.12 in 10.0 mi SSE 5.8 mph - N/A   Overcast
8:56 PM 60.8 °F - 39.2 °F 45% 30.12 in 10.0 mi SSE 9.2 mph - N/A   Overcast
9:16 PM 60.8 °F - 39.2 °F 45% 30.13 in 10.0 mi SSE 8.1 mph - N/A Rain Light Rain
9:36 PM 59.0 °F - 41.0 °F 51% 30.13 in 10.0 mi SSE 6.9 mph - N/A Rain Light Rain
9:56 PM 57.2 °F - 42.8 °F 59% 30.13 in 10.0 mi SSE 3.5 mph - N/A Rain Light Rain
10:16 PM 57.2 °F - 41.0 °F 55% 30.13 in 10.0 mi SE 5.8 mph - N/A   Overcast
10:36 PM 57.2 °F - 41.0 °F 55% 30.12 in 10.0 mi Calm Calm - N/A Rain Light Rain
10:56 PM 55.4 °F - 44.6 °F 67% 30.12 in 10.0 mi Calm Calm - N/A   Light Drizzle
11:16 PM 55.4 °F - 46.4 °F 72% 30.11 in 10.0 mi Calm Calm - N/A   Light Drizzle
11:36 PM 53.6 °F - 46.4 °F 77% 30.10 in 10.0 mi Calm Calm - N/A   Scattered Clouds
11:56 PM 55.4 °F - 42.8 °F 63% 30.08 in 10.0 mi ESE 4.6 mph - N/A   Scattered Clouds